Lufkin, TX

4:19 PM CDT on May 24, 2018 (GMT -0500)
Angelina County

Weather History for KLFK - November, 2012

Change the Weather History Date:

Sunday, November 4, 2012

  Actual Average Record
Temperature  
Mean Temperature 69 °F 62 °F  
Max Temperature 81 °F 74 °F 89 °F (1948)
Min Temperature 57 °F 50 °F 23 °F (1991)
Degree Days  
Heating Degree Days 0 5  
Month to date heating degree days 0 19  
Since 1 July heating degree days 80 85  
Cooling Degree Days 4 2  
Month to date cooling degree days 22 8  
Year to date cooling degree days 3147 2552  
Growing Degree Days 18 (Base 50)    
Moisture  
Dew Point 58 °F    
Average Humidity 69    
Maximum Humidity 93    
Minimum Humidity 45    
Precipitation  
Precipitation 0.00 in 0.17 in 5.14 in (2002)
Month to date precipitation 0.46 0.68  
Year to date precipitation 38.43 40.18  
Snow  
Snow 0.00 in - - ()
Month to date snowfall 0.0  
Since 1 July snowfall 0.0  
Since 1 September snowfall 0.0  
Snow Depth 0.00 in    
Sea Level Pressure  
Sea Level Pressure 30.07 in    
Wind  
Wind Speed 3 mph (ENE)    
Max Wind Speed 10 mph    
Max Gust Speed 18 mph    
Visibility 6 miles    
Events Fog    
T = Trace of Precipitation, MM = Missing Value Source: NWS Daily Summary

Daily Weather History Graph

Daily Weather History Graph

Search for Another Location

Airport or City:

Astronomy

Nov. 04, 2012 Rise Set
Actual Time 6:37 AM CST 5:27 PM CST
Civil Twilight 6:12 AM CST 5:52 PM CST
Nautical Twilight 5:43 AM CST 6:21 PM CST
Astronomical Twilight 5:14 AM CST 6:49 PM CST
Moon 10:09 PM CST (11/4) 11:17 AM CST (11/4)
Length of Visible Light 11h 40m
Length of Day
10h 49m
Waning Gibbous, 72% of the Moon is Illuminated
Nov 4
Waning Gibbous
Nov 6
Last Quarter
Nov 13
New
Nov 20
First Quarter
Nov 28
Full

Hourly Weather History & Observations

Time (CST) Temp. Heat Index Dew Point Humidity Pressure Visibility Wind Dir Wind Speed Gust Speed Precip Events Conditions
12:53 AM 62.1 °F - 59.0 °F 90% 30.06 in 9.0 mi Calm Calm - N/A   Mostly Cloudy
1:53 AM 61.0 °F - 57.9 °F 90% 30.06 in 8.0 mi Calm Calm - N/A   Clear
1:53 AM 62.1 °F - 59.0 °F 90% 30.06 in 10.0 mi North 4.6 mph - N/A   Mostly Cloudy
2:53 AM 61.0 °F - 57.9 °F 90% 30.06 in 10.0 mi Calm Calm - N/A   Scattered Clouds
3:53 AM 59.0 °F - 55.9 °F 90% 30.06 in 7.0 mi Calm Calm - N/A   Clear
4:49 AM 57.2 °F - 55.4 °F 94% 30.08 in 1.8 mi Calm Calm - N/A   Clear
4:53 AM 57.9 °F - 55.9 °F 93% 30.07 in 1.0 mi Calm Calm - N/A   Clear
5:00 AM 57.2 °F - 55.4 °F 94% 30.08 in 0.5 mi Calm Calm - N/A Fog Fog
5:08 AM 57.2 °F - 55.4 °F 94% 30.08 in 2.5 mi SSE 3.5 mph - N/A   Clear
5:41 AM 59.0 °F - 55.4 °F 88% 30.09 in 2.0 mi Calm Calm - N/A   Clear
5:51 AM 57.2 °F - 55.4 °F 94% 30.09 in 4.0 mi Calm Calm - N/A   Scattered Clouds
5:53 AM 57.9 °F - 55.0 °F 90% 30.09 in 4.0 mi Calm Calm - N/A   Scattered Clouds
6:18 AM 57.2 °F - 55.4 °F 94% 30.10 in 1.8 mi Calm Calm - N/A   Partly Cloudy
6:39 AM 57.2 °F - 55.4 °F 94% 30.10 in 3.0 mi Calm Calm - N/A   Partly Cloudy
6:42 AM 57.2 °F - 55.4 °F 94% 30.10 in 1.2 mi Calm Calm - N/A   Partly Cloudy
6:49 AM 57.2 °F - 53.6 °F 88% 30.10 in 0.2 mi Calm Calm - N/A Fog Fog
6:53 AM 57.0 °F - 55.0 °F 93% 30.10 in 0.5 mi Calm Calm - N/A Fog Fog
7:01 AM 57.2 °F - 55.4 °F 94% 30.10 in 2.0 mi Calm Calm - N/A   Scattered Clouds
7:08 AM 57.2 °F - 55.4 °F 94% 30.10 in 6.0 mi Calm Calm - N/A   Scattered Clouds
7:53 AM 62.1 °F - 57.9 °F 86% 30.10 in 10.0 mi Calm Calm - N/A   Clear
9:53 AM 73.0 °F - 61.0 °F 66% 30.11 in 10.0 mi ESE 5.8 mph - N/A   Clear
10:53 AM 75.0 °F - 59.0 °F 57% 30.10 in 10.0 mi East 5.8 mph - N/A   Clear
11:53 AM 77.0 °F - 59.0 °F 54% 30.08 in 10.0 mi ESE 3.5 mph - N/A   Clear
12:53 PM 79.0 °F - 59.0 °F 50% 30.05 in 10.0 mi North 4.6 mph - N/A   Clear
1:53 PM 80.1 °F 80.6 °F 57.9 °F 47% 30.04 in 10.0 mi NNE 5.8 mph - N/A   Clear
2:53 PM 80.1 °F 80.6 °F 57.9 °F 47% 30.03 in 10.0 mi East 3.5 mph - N/A   Clear
3:53 PM 79.0 °F - 57.9 °F 48% 30.02 in 10.0 mi SE 4.6 mph - N/A   Clear
4:53 PM 77.0 °F - 57.9 °F 52% 30.02 in 10.0 mi Calm Calm - N/A   Clear
5:53 PM 69.1 °F - 61.0 °F 75% 30.04 in 10.0 mi Calm Calm - N/A   Clear
6:53 PM 66.9 °F - 61.0 °F 81% 30.05 in 10.0 mi Calm Calm - N/A   Clear
7:53 PM 68.0 °F - 61.0 °F 78% 30.05 in 10.0 mi ENE 4.6 mph - N/A   Clear
8:53 PM 66.9 °F - 61.0 °F 81% 30.07 in 10.0 mi ENE 5.8 mph - 0.01 in   Clear
9:53 PM 64.9 °F - 61.0 °F 87% 30.07 in 9.0 mi East 5.8 mph - N/A   Overcast
10:07 PM 64.4 °F - 60.8 °F 88% 30.08 in 8.0 mi ENE 4.6 mph - N/A   Overcast